This demonstration page uses our WeatherBlox Daily Observations layout. Learn more.

Left ArrowRight Arrow

Hourly Observations for February 25, 2021

Temp ( °F °C ) Dew Point ( °F °C ) Humidity (%) Winds ( mph kmh ) Pressure ( in mb ) Visibility ( mi km ) Precip ( " mm )
12:15 am 00:15 Clear 30 -1 24 -4.5 77 77 WNW 7 11 30.47 1032 10 16 N/A
12:35 am 00:35 Clear 29 -1.7 23 -4.8 80 80 NW 9 15 30.48 1032 10 16 N/A
12:55 am 00:55 Clear 29 -1.7 24 -4.5 81 81 NW 9 15 30.48 1032 10 16 N/A
1:15 am 01:15 Clear 31 -0.5 24 -4.3 76 76 NNW 8 13 30.48 1032 10 16 N/A
1:35 am 01:35 Clear 31 -0.7 24 -4.6 75 75 NNW 8 13 30.48 1032 10 16 N/A
1:55 am 01:55 Clear 30 -1 24 -4.7 76 76 NNW 7 11 30.49 1032 10 16 N/A
2:15 am 02:15 Clear 29 -1.5 23 -5.1 77 77 NNW 7 11 30.49 1033 10 16 N/A
2:35 am 02:35 Clear 29 -1.7 23 -5.1 78 78 NNW 8 13 30.49 1033 10 16 N/A
2:55 am 02:55 Clear 29 -1.8 23 -5.2 78 78 NNW 8 13 30.49 1033 10 16 N/A
3:15 am 03:15 Clear 28 -2.3 22 -5.4 80 80 NNW 7 11 30.49 1032 10 16 N/A
3:35 am 03:35 Clear 28 -2.5 23 -5.2 82 82 NW 6 9 30.49 1033 10 16 N/A
3:55 am 03:55 Clear 26 -3.6 21 -5.9 84 84 NW 5 7 30.50 1033 10 16 N/A
4:15 am 04:15 Clear 24 -4.5 21 -6.2 88 88 NW 5 7 30.50 1033 10 16 N/A
4:35 am 04:35 Partly Cloudy 25 -3.7 22 -5.5 87 87 NW 5 7 30.49 1033 10 16 N/A
4:55 am 04:55 Cloudy 26 -3.5 23 -5 89 89 NNW 5 7 30.50 1033 10 16 N/A
5:15 am 05:15 Cloudy 28 -2.5 25 -4.1 89 89 NNW 7 11 30.48 1032 10 16 N/A
5:35 am 05:35 Cloudy 29 -1.8 25 -3.7 87 87 NNW 6 9 30.48 1032 10 16 N/A
5:55 am 05:55 Cloudy 29 -1.7 26 -3.5 88 88 NNW 6 9 30.47 1032 10 16 N/A
6:15 am 06:15 Cloudy 29 -1.5 26 -3.3 88 88 NNW 5 7 30.48 1032 10 16 N/A
6:35 am 06:35 Cloudy 29 -1.6 26 -3.5 87 87 NW 3 6 30.48 1032 10 16 N/A
6:55 am 06:55 Cloudy 29 -1.6 26 -3.5 87 87 NNW 6 9 30.47 1032 10 16 N/A
7:15 am 07:15 Cloudy 29 -1.6 26 -3.4 88 88 NW 3 6 30.47 1032 10 16 N/A
7:35 am 07:35 Cloudy 29 -1.6 26 -3.3 88 88 NNW 5 7 30.48 1032 10 16 N/A
7:55 am 07:55 Cloudy 29 -1.5 26 -3.3 88 88 NNW 6 9 30.48 1032 10 16 N/A
8:15 am 08:15 Cloudy 29 -1.5 26 -3.2 88 88 NNW 5 7 30.49 1033 10 16 N/A
8:35 am 08:35 Cloudy 30 -1.2 26 -3.1 87 87 NNW 5 7 30.51 1033 10 16 N/A
8:55 am 08:55 Cloudy 30 -1 27 -3 86 86 NNW 3 6 30.51 1033 10 16 N/A
9:15 am 09:15 Cloudy 31 -0.7 27 -3 85 85 NNW 5 7 30.51 1033 10 16 N/A
9:35 am 09:35 Cloudy 31 -0.6 26 -3.3 82 82 NNW 5 7 30.50 1033 10 16 N/A
9:55 am 09:55 Cloudy 31 -0.3 26 -3.3 80 80 N 3 6 30.50 1033 10 16 N/A
10:15 am 10:15 Cloudy 32 undefined 26 -3.2 79 79 NNW 6 9 30.50 1033 10 16 N/A
10:35 am 10:35 Cloudy 32 0.1 26 -3.2 79 79 NNW 3 6 30.50 1033 10 16 N/A
10:55 am 10:55 Cloudy 33 0.4 26 -3.1 78 78 N N/A 30.49 1033 10 16 N/A
11:15 am 11:15 Cloudy 34 1 27 -2.9 75 75 N N/A 30.48 1032 10 16 N/A
11:35 am 11:35 Mostly Cloudy 35 1.8 27 -2.6 73 73 NNE 3 6 30.47 1032 10 16 N/A
11:55 am 11:55 Partly Cloudy 36 2 26 -3.6 67 67 N N/A 30.46 1031 10 16 N/A
12:15 pm 12:15 Partly Cloudy 37 2.6 27 -2.8 68 68 N N/A 30.44 1031 10 16 N/A
12:35 pm 12:35 Partly Cloudy 38 3.1 26 -3.5 62 62 N N/A 30.43 1030 10 16 N/A
12:55 pm 12:55 Sunny 37 3 22 -5.7 53 53 ESE 5 7 30.41 1030 10 16 N/A
1:15 pm 13:15 Sunny 38 3.6 27 -3 62 62 SSE 5 7 30.39 1029 10 16 N/A
1:35 pm 13:35 Mostly Cloudy 40 4.3 26 -3.6 57 57 SSE 5 7 30.37 1028 10 16 N/A
1:55 pm 13:55 Cloudy 40 4.6 26 -3.3 57 57 SSE 6 9 30.35 1028 10 16 N/A
2:15 pm 14:15 Cloudy 40 4.6 26 -3.6 56 56 SSE 6 9 30.33 1027 10 16 N/A
2:35 pm 14:35 Cloudy 41 4.9 26 -3.2 56 56 SSE 5 7 30.32 1027 10 16 N/A
2:55 pm 14:55 Cloudy 41 5.2 24 -4.4 50 50 SSW 9 15 30.31 1026 10 16 N/A
3:15 pm 15:15 Cloudy 42 5.5 25 -4 51 51 SSW 7 11 30.28 1026 10 16 N/A
3:35 pm 15:35 Cloudy 42 5.5 24 -4.4 49 49 SW 5 7 30.28 1026 10 16 N/A
3:55 pm 15:55 Cloudy 42 5.5 26 -3.5 53 53 SW 6 9 30.27 1025 10 16 N/A
4:15 pm 16:15 Cloudy 42 5.7 26 -3.4 52 52 SSW 5 7 30.26 1025 10 16 N/A
4:35 pm 16:35 Cloudy 42 5.5 25 -3.7 52 52 S 8 13 30.25 1025 10 16 N/A
4:55 pm 16:55 Cloudy 42 5.6 26 -3.2 54 54 SSW 8 13 30.24 1024 10 16 N/A
5:15 pm 17:15 Mostly Cloudy 41 5.2 26 -3.3 55 55 SSW 8 13 30.23 1024 10 16 N/A
5:35 pm 17:35 Partly Cloudy 40 4.5 28 -2.4 61 61 S 6 9 30.22 1023 10 16 N/A
5:55 pm 17:55 Partly Cloudy 39 3.9 27 -2.6 63 63 S 7 11 30.22 1023 10 16 N/A
6:15 pm 18:15 Partly Cloudy 37 2.6 28 -2.2 71 71 S 6 9 30.23 1024 10 16 N/A
6:35 pm 18:35 Mostly Cloudy 36 2.4 28 -2.1 72 72 S 5 7 30.22 1023 10 16 N/A
6:55 pm 18:55 Cloudy 36 2.1 28 -2.5 72 72 S 6 9 30.22 1023 10 16 N/A
7:15 pm 19:15 Mostly Cloudy 35 1.6 28 -2.5 74 74 S 7 11 30.22 1023 10 16 N/A
7:35 pm 19:35 Partly Cloudy 34 1.2 27 -2.6 76 76 S 8 13 30.21 1023 10 16 N/A
7:55 pm 19:55 Clear 34 1 27 -2.7 77 77 S 9 15 30.22 1023 10 16 N/A
8:15 pm 20:15 Clear 35 1.9 26 -3.1 70 70 SSE 10 17 30.20 1023 10 16 N/A
8:35 pm 20:35 Clear 35 1.8 26 -3.2 70 70 S 12 19 30.19 1022 10 16 N/A
8:55 pm 20:55 Clear 35 1.6 26 -3.3 70 70 S 13 20 30.18 1022 10 16 N/A
9:15 pm 21:15 Clear 35 1.5 26 -3.1 72 72 S 12 19 30.18 1022 10 16 N/A
9:35 pm 21:35 Clear 34 0.9 26 -3.4 73 73 S 10 17 30.19 1022 10 16 N/A
9:55 pm 21:55 Clear 33 0.6 26 -3.6 74 74 S 12 19 30.19 1022 10 16 N/A
10:15 pm 22:15 Clear 33 0.3 25 -3.9 74 74 S 12 19 30.19 1022 10 16 N/A
10:35 pm 22:35 Clear 32 0.2 25 -4 74 74 S 13 20 30.18 1022 10 16 N/A
10:55 pm 22:55 Clear 33 0.3 24 -4.5 70 70 S 13 20 30.18 1022 10 16 N/A
11:15 pm 23:15 Clear 33 0.5 24 -4.6 69 69 S 15 24 30.17 1022 10 16 N/A
11:35 pm 23:35 Clear 33 0.5 23 -5.2 66 66 S 15 24 30.16 1021 10 16 N/A
11:55 pm 23:55 Clear 33 0.4 22 -5.4 65 65 S 14 22 30.15 1021 10 16 N/A

Powered by AerisWeather